Change the Weather History Date:

Thursday, October 3, 2013

  Actual Average Record
Temperature  
Mean Temperature 51 °F -  
Max Temperature 53 °F 65 °F 84 °F (2011)
Min Temperature 46 °F 41 °F 33 °F (1999)
Degree Days  
Heating Degree Days 14    
Growing Degree Days 1 (Base 50)    
Moisture  
Dew Point 49 °F    
Average Humidity 95    
Maximum Humidity 100    
Minimum Humidity 62    
Precipitation  
Precipitation 0.57 in - - ()
Sea Level Pressure  
Sea Level Pressure 29.86 in    
Wind  
Wind Speed 7 mph (North)    
Max Wind Speed 15 mph    
Max Gust Speed 22 mph    
Visibility 7 miles    
Events Fog , Rain , Thunderstorm    
Averages and records for this station are not official NWS values.
T = Trace of Precipitation, MM = Missing Value Source: NWS Daily Summary

Daily Weather History Graph

Daily Weather History Graph

Search for Another Location

Airport or City:

Trip Planner

Search our weather history database for the weather conditions in past years. The results will help you decide how hot, cold, wet, or windy it might be!

Date:

Astronomy

Oct. 03, 2013 Rise Set
Actual Time 7:39 AM CDT 7:17 PM CDT
Civil Twilight 7:11 AM CDT 7:45 PM CDT
Nautical Twilight 6:38 AM CDT 8:18 PM CDT
Astronomical Twilight 6:05 AM CDT 8:50 PM CDT
Moon 6:13 AM CDT 6:27 PM CDT
Length of Visible Light 12h 33m
Length of Day
11h 37m
Waning Crescent, 2% of the Moon is Illuminated
Oct 3
Waning Crescent
Oct 4
New
Oct 11
First Quarter
Oct 18
Full
Oct 26
Last Quarter

Hourly Weather History & Observations

Time (CDT) Temp. Dew Point Humidity Pressure Visibility Wind Dir Wind Speed Gust Speed Precip Events Conditions
12:15 AM 56.8 °F 44.1 °F 62% 29.90 in 10.0 mi North 9.2 mph - N/A   Overcast
12:35 AM 55.2 °F 44.1 °F 66% 29.89 in 10.0 mi North 8.1 mph - N/A   Scattered Clouds
12:55 AM 53.6 °F 44.1 °F 70% 29.88 in 10.0 mi NNW 5.8 mph - N/A   Clear
1:15 AM 51.4 °F 43.9 °F 75% 29.88 in 10.0 mi North 5.8 mph - N/A   Clear
1:35 AM 50.9 °F 44.1 °F 77% 29.88 in 10.0 mi North 4.6 mph - N/A   Clear
1:55 AM 50.2 °F 44.2 °F 80% 29.89 in 10.0 mi North 3.5 mph - N/A   Scattered Clouds
2:15 AM 49.5 °F 44.4 °F 83% 29.89 in 10.0 mi NNW 4.6 mph - N/A   Scattered Clouds
2:35 AM 48.6 °F 44.4 °F 86% 29.88 in 10.0 mi North 4.6 mph - N/A   Scattered Clouds
2:55 AM 48.6 °F 44.8 °F 87% 29.88 in 10.0 mi NNW 5.8 mph - N/A   Scattered Clouds
3:15 AM 47.7 °F 44.6 °F 89% 29.88 in 10.0 mi NNW 4.6 mph - N/A   Clear
3:35 AM 47.8 °F 45.1 °F 90% 29.87 in 10.0 mi NNW 5.8 mph - N/A   Scattered Clouds
3:55 AM 46.9 °F 45.0 °F 93% 29.87 in 10.0 mi North 5.8 mph - N/A   Scattered Clouds
4:15 AM 47.3 °F 45.5 °F 93% 29.85 in 10.0 mi North 4.6 mph - N/A   Scattered Clouds
4:35 AM 46.8 °F 45.5 °F 95% 29.85 in 10.0 mi North 3.5 mph - N/A   Scattered Clouds
4:55 AM 46.9 °F 45.7 °F 95% 29.84 in 10.0 mi Calm Calm - N/A   Clear
5:15 AM 47.3 °F 46.0 °F 95% 29.84 in 10.0 mi NE 3.5 mph - N/A   Mostly Cloudy
5:35 AM 47.8 °F 46.9 °F 97% 29.83 in 10.0 mi NNE 5.8 mph - N/A   Overcast
5:55 AM 48.2 °F 47.3 °F 97% 29.83 in 10.0 mi North 5.8 mph - N/A   Overcast
6:15 AM 48.2 °F 47.3 °F 97% 29.83 in 10.0 mi North 4.6 mph - N/A   Overcast
6:35 AM 48.2 °F 47.3 °F 97% 29.83 in 10.0 mi NE 5.8 mph - N/A Thunderstorm Overcast
6:55 AM 48.2 °F 47.7 °F 98% 29.82 in 7.0 mi NE 5.8 mph - N/A   Overcast
7:15 AM 48.2 °F 47.7 °F 98% 29.85 in 7.0 mi NNW 9.2 mph - N/A Thunderstorm Overcast
7:35 AM 48.4 °F 47.8 °F 98% 29.85 in 3.0 mi NNW 9.2 mph - N/A   Overcast
7:55 AM 48.2 °F 47.7 °F 98% 29.87 in 0.2 mi NNW 10.4 mph - N/A Fog Fog
8:15 AM 48.0 °F 47.8 °F 99% 29.85 in 0.5 mi North 12.7 mph - N/A Rain , Thunderstorm Light Thunderstorms and Rain
8:35 AM 48.2 °F 47.8 °F 99% 29.87 in 0.2 mi North 11.5 mph 17.3 mph N/A Rain Light Rain
8:55 AM 48.2 °F 48.0 °F 99% 29.87 in 0.5 mi North 9.2 mph - N/A   Unknown
9:15 AM 48.2 °F 48.2 °F 100% 29.85 in 0.8 mi North 12.7 mph - 0.01 in Rain , Thunderstorm Rain
9:35 AM 48.0 °F 47.8 °F 99% 29.87 in 5.0 mi North 13.8 mph - 0.04 in Rain , Thunderstorm Light Thunderstorms and Rain
9:55 AM 47.8 °F 47.7 °F 99% 29.85 in 10.0 mi North 13.8 mph 20.7 mph 0.04 in   Overcast
10:15 AM 47.7 °F 47.5 °F 99% 29.84 in 0.5 mi NE 13.8 mph - 0.30 in Rain , Thunderstorm Rain
10:35 AM 48.6 °F 48.4 °F 99% 29.88 in 1.8 mi North 8.1 mph - 0.37 in Rain , Thunderstorm Heavy Thunderstorms and Rain
10:55 AM 49.1 °F 48.7 °F 99% 29.90 in 3.0 mi WNW 4.6 mph - 0.40 in Rain , Thunderstorm Light Thunderstorms and Rain
11:15 AM 49.3 °F 49.1 °F 99% 29.86 in 5.0 mi Calm Calm - 0.03 in Rain , Thunderstorm Light Thunderstorms and Rain
11:35 AM 49.3 °F 49.1 °F 99% 29.88 in 10.0 mi Calm Calm - 0.03 in Thunderstorm Unknown
11:55 AM 49.5 °F 49.1 °F 99% 29.87 in 10.0 mi Calm Calm - 0.06 in Rain , Thunderstorm Light Thunderstorms and Rain
12:15 PM 50.0 °F 49.3 °F 97% 29.87 in 10.0 mi Calm Calm - N/A Rain Light Rain
12:35 PM 50.4 °F 50.0 °F 99% 29.87 in 10.0 mi North 4.6 mph - N/A Rain Light Rain
12:55 PM 50.7 °F 50.2 °F 98% 29.87 in 10.0 mi North 6.9 mph - N/A Rain Rain
1:15 PM 50.9 °F 50.2 °F 97% 29.87 in 7.0 mi North 5.8 mph - 0.02 in Rain Light Rain
1:35 PM 51.3 °F 50.7 °F 98% 29.87 in 10.0 mi North 6.9 mph - 0.02 in   Overcast
1:55 PM 51.1 °F 50.4 °F 97% 29.85 in 10.0 mi North 9.2 mph - 0.03 in Rain Rain
2:15 PM 51.3 °F 50.9 °F 99% 29.85 in 10.0 mi North 5.8 mph - N/A   Light Drizzle
2:35 PM 51.1 °F 50.4 °F 97% 29.85 in 10.0 mi North 5.8 mph - N/A   Overcast
2:55 PM 51.6 °F 50.9 °F 97% 29.85 in 10.0 mi North 5.8 mph - N/A   Overcast
3:15 PM 51.8 °F 51.1 °F 97% 29.85 in 10.0 mi North 8.1 mph - N/A   Overcast
3:35 PM 51.8 °F 51.1 °F 97% 29.85 in 10.0 mi North 9.2 mph - N/A Rain Light Rain
3:55 PM 51.8 °F 51.1 °F 97% 29.85 in 10.0 mi North 10.4 mph - N/A   Overcast
4:15 PM 51.8 °F 51.4 °F 99% 29.85 in 10.0 mi North 9.2 mph - N/A   Overcast
4:35 PM 52.0 °F 51.4 °F 98% 29.85 in 10.0 mi NNE 6.9 mph - N/A   Overcast
4:55 PM 52.0 °F 51.4 °F 98% 29.84 in 10.0 mi NNE 8.1 mph - N/A   Overcast
5:15 PM 52.0 °F 51.4 °F 98% 29.85 in 10.0 mi NNE 9.2 mph - N/A   Overcast
5:35 PM 52.0 °F 51.6 °F 99% 29.85 in 10.0 mi North 8.1 mph - N/A   Overcast
5:55 PM 52.3 °F 52.0 °F 99% 29.86 in 10.0 mi NNE 6.9 mph - N/A   Overcast
6:15 PM 52.0 °F 51.8 °F 99% 29.85 in 7.0 mi NNE 8.1 mph - N/A Rain Light Rain
6:35 PM 52.0 °F 51.8 °F 99% 29.85 in 0.5 mi NNE 10.4 mph - N/A   Drizzle
6:55 PM 51.8 °F 51.8 °F 100% 29.85 in 0.2 mi North 10.4 mph - N/A   Light Drizzle
7:15 PM 51.4 °F 51.4 °F 100% 29.86 in 0.2 mi NNE 10.4 mph - N/A Rain Light Rain
7:35 PM 51.4 °F 51.4 °F 100% 29.87 in 0.2 mi NNE 10.4 mph - N/A Rain Light Rain
7:55 PM 51.3 °F 51.3 °F 100% 29.88 in 0.8 mi NNE 8.1 mph - N/A   Drizzle
8:15 PM 51.3 °F 51.3 °F 100% 29.89 in 0.8 mi NNE 6.9 mph - 0.01 in Rain Light Rain
8:35 PM 51.4 °F 51.4 °F 100% 29.89 in 2.5 mi NNE 10.4 mph - 0.02 in   Drizzle
8:55 PM 51.8 °F 51.8 °F 100% 29.89 in 5.0 mi NE 9.2 mph - 0.03 in   Drizzle
9:15 PM 51.8 °F 51.8 °F 100% 29.88 in 4.0 mi NE 10.4 mph - 0.01 in Thunderstorm Drizzle
9:35 PM 52.2 °F 52.2 °F 100% 29.87 in 3.0 mi NE 9.2 mph - 0.01 in Rain Light Rain
9:55 PM 52.3 °F 52.3 °F 100% 29.88 in 5.0 mi NE 12.7 mph - 0.01 in   Light Drizzle
10:15 PM 52.2 °F 52.2 °F 100% 29.87 in 5.0 mi NE 12.7 mph 19.6 mph N/A Rain Light Rain
10:35 PM 52.0 °F 52.0 °F 100% 29.87 in 4.0 mi NE 12.7 mph - N/A Rain Rain
11:35 PM 52.0 °F 52.0 °F 100% 29.85 in 10.0 mi NE 13.8 mph 20.7 mph N/A   Overcast
11:55 PM 52.0 °F 52.0 °F 100% 29.84 in 7.0 mi NE 15.0 mph 21.9 mph N/A   Overcast